[[{"header":{"parameterUnit":"m.s-1","parameterCategory":1,"la1":30.2991,"la2":30.254,"lo1":-89.0895,"lo2":-89.0444,"dy":0.0017,"dx":0.0017,"nx":28,"ny":28,"refTime":"2025-05-27T03:00:00:Z","depth":0,"parameterNumber":2,"parameterNumberName":"U-component_of_WINDS"},"data":[0,0,0,0,0,0,0,0,0,0,0,0,0,0,0,0,0,0,0,0,0,0,0,0,0,0,0,0,0,0,0,0,0,0,0,0,0,0,0,0,0,0,0,0,0,0,0,0,0,0,0,0,0,0,0,0,0,0,0.9065,0.9065,0,0.9028,0.9028,0.9027,0.8994,0.8993,0.8993,0.8993,0.8954,0.8953,0.8953,0,0,0,0,0,0,0,0,0,0,0,0,0,0.9105,0.9105,0.9065,0.9065,0.9064,0.9028,0.9028,0.9027,0.8994,0.8993,0.8993,0.8992,0.8954,0.8953,0.8953,0,0,0,0,0,0,0,0,0,0,0,0,0,0.908,0.9104,0.9065,0.9044,0.9041,0.9028,0.9028,0.9027,0.8994,0.8993,0.8993,0.8992,0.8954,0.8953,0.8952,0.8958,0,0,0.8949,0.8949,0,0,0,0,0,0,0,0,0.9081,0.9079,0.9047,0.9045,0.9042,0.9015,0.9027,0.9004,0.8994,0.9012,0.8993,0.8992,0.8975,0.8972,0.8966,0.8956,0.8955,0.8949,0.8949,0.8948,0.8948,0,0,0,0,0,0,0,0.9083,0.908,0.9051,0.9047,0.9044,0.9035,0.903,0.9023,0.8997,0.901,0.9008,0.9004,0.8973,0.8967,0.8965,0.8954,0.8949,0.8948,0.8948,0.8947,0.8943,0.8944,0,0,0,0,0,0,0.9089,0.9082,0.9052,0.9049,0.9061,0.9034,0.903,0.9024,0.8997,0.8992,0.9004,0.9002,0.8969,0.8966,0.8964,0.8966,0.8948,0.8947,0.8947,0.8943,0.8943,0.8944,0,0,0,0,0,0,0.909,0.9086,0.9053,0.9065,0.906,0.9034,0.9029,0.9024,0.9018,0.8993,0.8988,0.9003,0.8969,0.8965,0.8959,0.8964,0.8947,0.8946,0.8942,0.8943,0.8944,0.8973,0,0,0,0,0,0,0.9091,0.9087,0.9089,0.9065,0.9059,0.905,0.9029,0.9024,0.9016,0.9013,0.899,0.8986,0.8968,0.8961,0.8958,0.8963,0.8945,0.8942,0.8943,0.8943,0.8971,0.8974,0.8977,0,0,0,0,0,0.9092,0.91,0.909,0.9086,0.9062,0.9051,0.9047,0.9027,0.9017,0.9019,0.9002,0.8986,0.8964,0.896,0.8957,0.8962,0.8941,0.8942,0.8943,0.897,0.8974,0.8977,0,0,0,0,0,0,0.9126,0.9096,0.9085,0.9085,0.907,0.9045,0.9047,0.9032,0.902,0.9018,0.8993,0.8988,0.8984,0.8972,0.8968,0.8964,0.895,0.8951,0.8972,0.8975,0.8978,0.8981,0.8944,0,0,0,0,0,0.9133,0.9127,0.9101,0.9103,0.9096,0.9073,0.9067,0.9052,0.9036,0.903,0.9013,0.8998,0.8987,0.8981,0.897,0.8969,0.8963,0.8971,0.8974,0.8976,0.8977,0.8973,0.8976,0.8948,0.8947,0.8947,0,0,0.9148,0.9131,0.9129,0.9109,0.9096,0.9089,0.9068,0.9062,0.9056,0.9029,0.9022,0.9009,0.899,0.8986,0.8983,0.8976,0.8983,0.8978,0.898,0.8979,0.8974,0.8977,0.8979,0.8948,0.8948,0.8948,0,0,0.9171,0.9159,0.9158,0.9145,0.9126,0.911,0.9109,0.9086,0.9076,0.9068,0.9047,0.9039,0.9022,0.9008,0.8999,0.9015,0.8999,0.9012,0.9027,0.9024,0.9026,0.9028,0.9032,0.9033,0.9013,0.9013,0.9013,0,0.9193,0.9181,0.916,0.9154,0.9145,0.912,0.9118,0.9106,0.9084,0.9078,0.907,0.9046,0.9032,0.9023,0.9027,0.9021,0.9019,0.9014,0.9028,0.9029,0.9031,0.9034,0.9035,0.9014,0.9014,0.9014,0.9014,0,0.9207,0.9199,0.9201,0.9179,0.9171,0.9167,0.9143,0.9137,0.9123,0.9107,0.9098,0.908,0.9063,0.906,0.9047,0.9049,0.9044,0.9033,0.9018,0.9035,0.9038,0.9039,0.9016,0.9016,0.9015,0.9015,0,0,0.9251,0.9216,0.9217,0.9206,0.9181,0.9175,0.9169,0.9152,0.9146,0.9132,0.9125,0.911,0.9098,0.9087,0.9072,0.9069,0.9079,0.9057,0.9056,0.906,0.9078,0.9087,0.9089,0.9069,0.9069,0.9069,0.9079,0,0.9269,0.9258,0.9237,0.9231,0.9223,0.9198,0.9192,0.9176,0.9161,0.915,0.9133,0.9122,0.9108,0.9101,0.9098,0.9079,0.9083,0.9078,0.9061,0.9061,0.9066,0.909,0.9099,0.911,0.908,0.908,0.9081,0,0.9289,0.9274,0.9268,0.9242,0.9238,0.9234,0.9215,0.9206,0.9187,0.9175,0.9163,0.9145,0.9136,0.9123,0.9109,0.9107,0.9098,0.9088,0.9088,0.9085,0.9071,0.9086,0.9113,0.9114,0.9082,0.9082,0.9082,0,0.9319,0.9298,0.9291,0.9283,0.9253,0.925,0.9237,0.9217,0.9208,0.9192,0.9185,0.9168,0.9159,0.9146,0.9123,0.9117,0.9111,0.9097,0.91,0.9101,0.91,0.91,0.9124,0.9096,0.9096,0.9096,0.9096,0,0.9341,0.9337,0.9304,0.93,0.9294,0.927,0.9265,0.925,0.9232,0.9223,0.92,0.9192,0.9164,0.9152,0.9134,0.9124,0.912,0.911,0.9105,0.9111,0.9113,0.9105,0.9103,0.9097,0.9097,0.9096,0.9096,0,0.9373,0.9351,0.9342,0.9314,0.9306,0.9303,0.9279,0.9273,0.9256,0.9244,0.924,0.9213,0.9198,0.9174,0.9152,0.914,0.9132,0.9125,0.9139,0.9136,0.9139,0.9139,0.9159,0.9159,0.9133,0.9133,0.9133,0,0.9388,0.9385,0.9356,0.9348,0.9336,0.9325,0.9314,0.929,0.928,0.9256,0.9252,0.9235,0.922,0.9196,0.9174,0.9156,0.9148,0.9156,0.9145,0.915,0.9146,0.9146,0.9144,0.9158,0.9158,0.9159,0.9159,0,0.9415,0.9404,0.9391,0.9373,0.9362,0.9347,0.9331,0.9325,0.9297,0.9287,0.927,0.9259,0.9235,0.9218,0.9197,0.9182,0.9165,0.9163,0.9162,0.9168,0.9175,0.917,0.9144,0.9162,0.9162,0.9162,0.9161,0.9161,0.9438,0.9433,0.9412,0.9397,0.9382,0.9367,0.9359,0.934,0.9327,0.9306,0.9292,0.9276,0.9254,0.9223,0.921,0.9196,0.9189,0.9189,0.9188,0.9188,0.919,0.9178,0.9192,0.9192,0.9192,0.9192,0.9192,0,0.9463,0.9448,0.9434,0.9412,0.94,0.9385,0.9366,0.9356,0.9343,0.9324,0.9309,0.9289,0.9272,0.9248,0.9228,0.9222,0.9213,0.9217,0.9217,0.9213,0.9198,0.92,0.9224,0.9224,0.9224,0.9224,0.9224,0.9224,0.9474,0.9465,0.9451,0.9432,0.9416,0.9401,0.9391,0.9376,0.9361,0.934,0.9325,0.9309,0.9287,0.9266,0.9248,0.9241,0.9235,0.9241,0.9231,0.9218,0.9215,0.9212,0.9213,0.924,0.924,0.9247,0.9247,0.9247]},{"header":{"parameterUnit":"m.s-1","parameterCategory":1,"la1":30.2991,"la2":30.254,"lo1":-89.0895,"lo2":-89.0444,"dy":0.0017,"dx":0.0017,"nx":28,"ny":28,"refTime":"2025-05-27T03:00:00:Z","depth":0,"parameterNumber":3,"parameterNumberName":"V-component_of_WINDS"},"data":[0,0,0,0,0,0,0,0,0,0,0,0,0,0,0,0,0,0,0,0,0,0,0,0,0,0,0,0,0,0,0,0,0,0,0,0,0,0,0,0,0,0,0,0,0,0,0,0,0,0,0,0,0,0,0,0,0,0,4.9738,4.9739,0,4.9847,4.9849,4.985,4.9802,4.98,4.9797,4.9795,4.9898,4.9903,4.9908,0,0,0,0,0,0,0,0,0,0,0,0,0,4.9476,4.9481,4.9738,4.9739,4.974,4.9847,4.9849,4.985,4.9803,4.98,4.9797,4.9793,4.9896,4.9902,4.9908,0,0,0,0,0,0,0,0,0,0,0,0,0,4.9588,4.9483,4.9737,4.973,4.973,4.9847,4.9849,4.9851,4.9804,4.98,4.9796,4.9792,4.9894,4.9902,4.9909,5.0037,0,0,4.9933,4.9937,0,0,0,0,0,0,0,0,4.9581,4.9597,4.973,4.9731,4.9731,4.9807,4.9794,4.9913,4.9805,4.9776,4.9795,4.979,4.987,4.988,4.9909,5.0042,5.0046,4.9934,4.9939,4.9942,4.9944,0,0,0,0,0,0,0,4.9574,4.9592,4.9781,4.9731,4.9733,4.9717,4.9729,4.9816,4.9843,4.9778,4.9775,4.9789,4.987,4.9901,4.9911,5.0048,4.9934,4.9941,4.9945,4.9949,5.0287,5.0291,0,0,0,0,0,0,4.9567,4.9586,4.9777,4.9784,4.9645,4.9725,4.9738,4.9787,4.9842,4.9847,4.9792,4.9786,4.989,4.9902,4.9914,5.0065,4.9942,4.9949,4.9954,5.0283,5.0288,5.0293,0,0,0,0,0,0,4.9562,4.9585,4.9773,4.9684,4.9707,4.9734,4.9789,4.9791,4.9823,4.9853,4.9857,4.982,4.9887,4.9903,5.0007,5.0068,4.9953,4.996,5.0278,5.0284,5.029,5.037,0,0,0,0,0,0,4.9555,4.9583,4.9635,4.9686,4.9712,4.9867,4.9793,4.9796,4.9837,4.9831,4.9881,4.9885,4.9885,4.9995,5.0015,5.0077,4.9966,5.0272,5.0281,5.0288,5.0362,5.0378,5.0393,0,0,0,0,0,4.9546,4.9651,4.9638,4.9661,4.9778,4.9871,4.9885,4.9886,4.9843,4.9893,4.9912,4.9883,5.0059,5.0006,5.0027,5.0093,5.0268,5.0278,5.0288,5.0355,5.0375,5.0392,0,0,0,0,0,0,4.9604,4.9658,4.9643,4.977,4.9817,4.9863,4.9926,4.9908,4.9965,4.9956,4.9952,4.9964,5.0071,5.0092,5.0033,5.0218,5.0156,5.0171,5.02,5.022,5.0235,5.0226,4.9972,0,0,0,0,0,4.9632,4.9707,4.9748,4.9855,4.988,4.9899,4.994,4.9937,4.9983,5.0002,5.0029,5.0072,5.0137,5.0179,5.0241,5.0365,5.0373,5.042,5.0435,5.0448,5.046,5.0524,5.0545,5.0325,5.0324,5.0324,0,0,4.969,4.9729,4.9775,4.9868,4.9904,4.9977,4.9916,4.9997,5.005,5.0013,5.0113,5.0134,5.0182,5.0296,5.0347,5.0317,5.0523,5.046,5.047,5.0475,5.0536,5.0557,5.0576,5.0331,5.033,5.0329,0,0,4.9833,4.9871,4.9964,5.0001,5.0056,5.0068,5.009,5.0139,5.0153,5.0254,5.0227,5.0288,5.04,5.0435,5.0467,5.0621,5.0596,5.0641,5.072,5.0783,5.08,5.0816,5.0869,5.0888,5.0653,5.0653,5.0653,0,4.9896,5.001,5.0012,5.0096,5.0136,5.0108,5.0199,5.0234,5.0306,5.0332,5.0298,5.0438,5.0468,5.0588,5.0626,5.0654,5.0676,5.0635,5.0798,5.0814,5.0828,5.0878,5.0898,5.0658,5.0658,5.0657,5.0657,0,5.0084,5.0163,5.023,5.0303,5.0351,5.0438,5.045,5.0497,5.0489,5.0503,5.0604,5.0639,5.0706,5.0735,5.0727,5.0853,5.0833,5.0799,5.0736,5.0854,5.0901,5.092,5.0666,5.0664,5.0662,5.0661,0,0,5.0268,5.0341,5.0365,5.0397,5.0455,5.0514,5.0598,5.0666,5.0705,5.0755,5.0823,5.0918,5.0886,5.0923,5.0919,5.0974,5.1091,5.0933,5.0934,5.0959,5.1229,5.1254,5.1276,5.1075,5.1079,5.1082,5.1224,0,5.0414,5.0565,5.0568,5.0704,5.0775,5.0749,5.0821,5.0863,5.0878,5.0937,5.0951,5.1019,5.0973,5.0995,5.1049,5.1066,5.1145,5.1055,5.1135,5.1138,5.1123,5.1301,5.1328,5.1461,5.1243,5.1246,5.1248,0,5.0604,5.0663,5.0807,5.0854,5.0883,5.0949,5.1011,5.1069,5.1114,5.112,5.1161,5.1148,5.1229,5.1165,5.1275,5.1215,5.1247,5.126,5.1265,5.1271,5.12,5.1311,5.1504,5.1523,5.1278,5.1275,5.1273,0,5.0721,5.0835,5.0936,5.0964,5.1022,5.1068,5.1093,5.1135,5.1175,5.1227,5.1253,5.1313,5.1346,5.1391,5.1393,5.1347,5.1503,5.144,5.1508,5.1508,5.1542,5.154,5.1742,5.1565,5.1565,5.1564,5.1564,0,5.0883,5.0972,5.0989,5.1051,5.1148,5.115,5.1245,5.1266,5.1303,5.1365,5.1345,5.1403,5.1403,5.1462,5.1463,5.1553,5.1568,5.1573,5.1572,5.1574,5.1574,5.1595,5.1585,5.157,5.1569,5.1568,5.1567,0,5.103,5.1046,5.1154,5.1199,5.1213,5.1282,5.1319,5.1376,5.1389,5.1468,5.1487,5.1506,5.1573,5.158,5.1658,5.1659,5.1766,5.1756,5.1752,5.175,5.1817,5.1811,5.2039,5.2068,5.1874,5.1876,5.1877,0,5.1132,5.12,5.1254,5.1296,5.1324,5.1392,5.1433,5.1436,5.1479,5.1534,5.1584,5.165,5.1703,5.1811,5.183,5.1888,5.1878,5.1954,5.1887,5.1886,5.1877,5.1873,5.1879,5.1967,5.1969,5.1971,5.1972,0,5.1311,5.1315,5.1377,5.1442,5.1492,5.1542,5.1589,5.1623,5.1631,5.168,5.175,5.1792,5.1872,5.1936,5.1994,5.2015,5.1995,5.1994,5.2012,5.2015,5.2009,5.2011,5.1787,5.1988,5.1987,5.1985,5.1985,5.1984,5.1437,5.1495,5.1542,5.1611,5.1647,5.1691,5.1747,5.1767,5.1827,5.1894,5.1891,5.1967,5.2007,5.2083,5.2109,5.2167,5.2141,5.2168,5.2175,5.2182,5.2188,5.2001,5.2177,5.2177,5.2176,5.2176,5.2176,0,5.1613,5.1642,5.1705,5.1773,5.1826,5.1805,5.1854,5.1899,5.1968,5.2009,5.2062,5.2141,5.2204,5.2227,5.2287,5.2328,5.232,5.2344,5.234,5.2345,5.2208,5.2186,5.235,5.235,5.235,5.235,5.2349,5.2349,5.1711,5.1808,5.1817,5.1931,5.1957,5.2035,5.2065,5.2104,5.2137,5.2227,5.228,5.2296,5.2329,5.2391,5.2445,5.245,5.2472,5.25,5.2501,5.2373,5.2355,5.2338,5.2317,5.2506,5.2506,5.2633,5.2634,5.2635]}]]